Location: Loghobera
(4.5130°N, 32.6504°E)
Time: 22:11:48
(UTC+00:00)

Daily predictions for brighter satellites

Satellite Brightness Start Highest point End
(mag) Time Altitude Azimuth Time Altitude Azimuth Time Altitude Azimuth
Ariane 42P Rocket 4.3 15:36:10 10° W 15:40:38 88° S 16:08:18 10° E
Centaur AC-146 4.1 15:53:41 10° WNW 15:58:23 88° SSW 16:58:03 10° ESE
YAOGAN 6 3.3 16:06:30 10° SE 16:09:51 32° E 16:13:09 10° NNE
GPS 2-05 Rocket1 3.3 16:08:29 10° SSW 16:11:01 31° SE 16:12:41 16° E
SWIFT 3.7 16:08:04 10° W 16:11:51 30° NNW 16:15:39 10° NE
Cosmos-2242 4.3 16:10:36 10° SE 16:13:55 21° E 16:17:14 10° NE
Lacrosse 5 rocket 2.5 16:12:50 10° N 16:16:08 23° ENE 16:18:39 14° ESE
Cosmos 2369 Rocket 3.5 16:13:57 10° SSE 16:18:00 20° ESE 16:20:18 16° ENE
Cosmos 2285 Rocket 4.3 16:12:20 10° NNW 16:18:40 72° W 16:24:59 10° S
Cosmos 1300 2.6 16:18:55 10° S 16:22:44 85° E 16:26:32 10° N
TELKOM 3 3.3 16:21:26 10° SSW 16:23:46 41° SE 16:24:11 35° E
Cosmos 1328 3.8 16:21:19 10° N 16:25:13 84° W 16:29:09 10° S
CSL-04 Debris 4.4 16:20:51 10° SSE 16:25:58 44° ENE 16:31:06 10° N
Okean-O 4.1 16:24:06 10° S 16:28:15 40° WSW 16:32:24 10° NNW
USA 234 3.3 16:22:52 10° NE 16:29:20 67° SE 16:35:49 10° SSW
PAYLOAD A 3.9 16:25:59 10° W 16:29:40 75° S 16:36:55 17° E
ARIANE 5 R/B 3.7 16:28:39 10° WSW 16:31:20 39° SSE 16:37:05 17° ESE
ASTRO E2 2.7 16:27:47 10° NW 16:31:43 59° NNE 16:33:41 27° ESE
Cosmos 468 Rocket 4.1 16:28:19 10° SSW 16:33:38 83° WNW 16:38:55 10° N
Ariane H10 3.7 16:31:56 10° W 16:35:17 78° N 16:40:57 22° E
Hubble Space Telescope 3.5 16:34:02 10° WSW 16:36:10 14° SSW 16:38:17 10° S
Meteor 2-1 Rocket 4.1 16:30:56 10° S 16:36:26 75° E 16:41:55 10° N
CZ-4 R/B 1.4 16:33:24 10° S 16:37:28 88° WSW 16:41:36 10° NNW
Ariane H10 2.9 16:27:56 10° W 16:41:18 83° S 16:43:15 32° E
Cosmos 1570 Rocket 3.9 16:38:15 10° S 16:43:33 81° E 16:48:51 10° NNE
Cosmos 1943 Rocket 2.3 16:40:28 10° S 16:45:44 49° ESE 16:48:21 28° NE
ARIANE 5 R/B 3.6 16:45:35 10° WSW 16:49:31 67° S 16:59:10 25° E
ARIANE 5 R/B 3.6 16:45:35 10° WSW 16:49:31 67° S 16:59:11 25° E
ARIANE 5 R/B 3.6 16:45:35 10° WSW 16:49:32 67° S 16:59:11 25° E
Cosmos 841 Rocket 3.5 16:47:21 10° S 16:52:24 55° ESE 16:54:16 36° NE
OAO 1 Rocket 4.3 16:49:36 10° NW 16:54:54 82° NE 16:56:57 38° ESE
EO 1 Delta rocket 4.3 16:50:18 10° S 16:55:30 66° W 17:00:05 10° NNW
Cosmos 2208 Rocket 3.9 16:51:36 10° SSW 16:56:54 88° WNW 17:01:09 16° NNE
Cosmos 1605 Rocket 4.3 16:51:26 10° NNW 16:57:27 66° W 17:03:28 10° S
Cosmos 44 Rocket 3.4 16:52:27 10° SSW 16:57:34 78° WNW 17:00:33 25° NNE
Fermi 4.1 16:56:34 10° WSW 17:00:36 54° NNW 17:01:00 51° N
Cosmos 2344 3.6 16:51:19 10° SSW 17:00:39 71° ESE 17:05:27 26° NE
Sylda 5 3.2 16:59:01 10° WSW 17:02:22 44° S 17:04:25 31° SE
COSMOS 2406 3.2 16:57:00 10° NNW 17:02:42 86° WSW 17:08:24 10° SSE
Cosmos 2123 Rocket 4.0 16:56:35 10° S 17:02:47 57° E 17:06:15 26° NNE
SL-4 R/B 3.6 16:59:49 10° NNW 17:01:03 20° NNW 17:01:03 20° NNW
Intelsat 5-3 Rocket 2.7 17:00:25 10° SW 17:03:22 53° SSE 17:03:22 53° SSE
CZ-2C R/B 3.7 17:01:02 22° N 17:04:00 86° WNW 17:08:44 10° SSW
SAR-Lupe-2 3.8 17:04:43 65° WNW 17:04:54 66° WNW 17:08:27 10° SSW
Cosmos 1777 Rocket 4.0 17:07:34 10° NNW 17:12:45 80° WSW 17:17:56 10° S
Skynet4D Del rocket 3.8 17:08:49 10° WSW 17:14:21 69° NNW 17:15:25 56° NNE
YAOGAN 1 4.1 17:11:53 10° SSW 17:15:49 35° WSW 17:19:45 10° NW
Cosmos 540 Rocket 3.3 17:11:49 10° S 17:16:47 80° SE 17:16:47 80° SE
ADEOS Rocket 3.1 17:13:01 10° NNE 17:20:04 86° ESE 17:26:23 10° S
ARIANE 5 R/B 4.3 17:17:19 10° W 17:21:51 78° S 17:28:15 38° ESE
Atlas Centaur 2 3.1 17:23:48 10° W 17:29:09 35° SW 17:30:07 32° SSW
deb Ariane 4.4 17:39:32 10° W 18:26:36 - E 17:43:35 74° N
BLOCK DM-SL R/B 4.2 17:41:25 10° WSW 17:44:04 37° SW 17:44:04 37° SW
Lacrosse 5 rocket 4.2 17:52:19 10° W 17:54:30 17° WSW 17:54:30 17° WSW
Cosmos 2369 Rocket 3.9 17:56:56 10° SW 18:01:43 28° WNW 18:02:11 28° WNW
ARIANE 5 R/B 4.5 18:10:34 10° W 18:18:31 34° W 18:18:31 34° W
